Location: Saint Louis
(38.6272°N, 90.1978°W)
Time: 10:52:06
(UTC-05:00)

ISS - Pass Details

Date: 13 February 2013
Orbit: 401 x 403 km, 51.6° (Epoch: 29 July)

Event Time Altitude Azimuth Distance (km) Brightness Sun altitude
Rises 19:20:54 0° 313° (NW) 2,351 1.3 -20.9°
Reaches altitude 10° 19:23:04 10° 319° (NW) 1,474 0.0 -21.3°
Enters shadow 19:25:04 30° 341° (NNW) 760 -1.8 -21.7°
